Location: Newark
(43.6583°N, 1.6617°E)
Time: 20:35:29
(UTC+00:00)

Courier 1B - Pass Details

Date: 29 August 2019
Orbit: 962 x 1209 km, 28.3° (Epoch: 23 October)

Event Time Altitude Azimuth Distance (km) Brightness Sun altitude
Rises 18:34:26 0° 252° (WSW) 3,833 11.7 -0.8°
Reaches altitude 10° 18:38:23 10° 232° (SW) 2,825 10.5 -1.5°
Maximum altitude 18:42:15 16° 197° (SSW) 2,377 9.6 -2.1°
Drops below altitude 10° 18:46:00 10° 162° (SSE) 2,738 9.5 -2.8°
Sets 18:49:46 0° 141° (SE) 3,655 10.0 -3.4°
